GW3822 Weather Reports


time (UTC)temp
F
wind
direction
speed
knots
gust
knots
rain 1hr
in
rain 24hr
in
rain mn
in
humidity
%
barometer
mb
20260504213741 72 204 1.7 8.7 0.00 0.00 0.00 34 1009.6
20260504212724 72 204 1.7 8.7 0.00 0.00 0.00 34 1009.7
20260504211706 72 200 1.7 8.7 0.00 0.00 0.00 34 1009.7
20260504210650 72 200 1.7 9.6 0.00 0.00 0.00 34 1009.7
20260504205634 73 202 1.7 9.6 0.00 0.00 0.00 34 1009.7
20260504204550 73 202 2.6 9.6 0.00 0.00 0.00 34 1009.7
20260504203748 73 200 1.7 9.6 0.00 0.00 0.00 34 1009.7
20260504202730 73 200 2.6 9.6 0.00 0.00 0.00 33 1009.7
20260504201454 73 200 2.6 9.6 0.00 0.00 0.00 33 1009.8
20260504200437 73 200 2.6 9.6 0.00 0.00 0.00 33 1009.8
20260504195634 73 240 2.6 8.7 0.00 0.00 0.00 33 1010.0
20260504194402 73 242 2.6 8.7 0.00 0.00 0.00 33 1010.1
20260504193344 74 238 2.6 8.7 0.00 0.00 0.00 34 1010.1
20260504192328 73 244 2.6 8.7 0.00 0.00 0.00 34 1010.2
20260504191524 73 248 1.7 8.7 0.00 0.00 0.00 34 1010.4
20260504190253 73 246 2.6 9.6 0.00 0.00 0.00 34 1010.5
20260504185236 72 214 2.6 0.0 0.00 0.00 0.00 34 1010.6
20260504184219 73 242 2.6 7.8 0.00 0.00 0.00 35 1010.8
20260504183202 72 266 2.6 7.8 0.00 0.00 0.00 35 1010.9
20260504182146 72 214 2.6 9.6 0.00 0.00 0.00 35 1011.1
20260504181342 72 210 2.6 9.6 0.00 0.00 0.00 36 1011.2
20260504180052 71 167 2.6 0.0 0.00 0.00 0.00 36 1011.3
20260504175003 71 198 2.6 0.0 0.00 0.00 0.00 35 1011.5
20260504173946 71 217 2.6 7.8 0.00 0.00 0.00 36 1011.6
20260504172930 70 233 1.7 7.0 0.00 0.00 0.00 37 1011.7
20260504171913 70 226 2.6 8.7 0.00 0.00 0.00 37 1011.8
20260504170853 69 232 2.6 8.7 0.00 0.00 0.00 37 1011.9
20260504150447 65 230 2.6 9.6 0.00 0.00 0.00 44 1013.4
20260504141319 63 222 2.6 8.7 0.00 0.00 0.00 50 1013.6
20260504140302 62 216 2.6 8.7 0.00 0.00 0.00 51 1013.6
20260504130113 58 210 2.6 0.0 0.00 0.00 0.00 59 1014.3
20260504100605 42 198 0.0 0.0 0.00 0.00 0.00 75 1014.4
20260504081224 42 226 0.0 0.0 0.00 0.00 0.00 71 1014.1
20260504080205 42 184 0.0 0.0 0.00 0.00 0.00 70 1014.4
20260504050643 46 222 0.0 0.0 0.00 0.00 0.00 62 1013.8
20260504045626 47 246 0.0 0.0 0.00 0.00 0.00 64 1013.7
20260504044609 47 246 0.0 0.0 0.00 0.00 0.00 62 1013.7
20260504043551 47 246 0.0 0.0 0.00 0.00 0.00 63 1013.5
20260504042534 47 248 0.0 0.0 0.00 0.00 0.00 63 1013.6
20260504041517 47 246 0.0 0.0 0.00 0.00 0.00 62 1013.5
20260504040501 46 244 0.0 0.0 0.00 0.00 0.00 62 1013.3
20260504035443 46 234 0.0 0.0 0.00 0.00 0.00 62 1013.4
20260504034427 46 230 0.0 0.0 0.00 0.00 0.00 62 1013.3
20260504033410 46 230 0.0 0.0 0.00 0.00 0.00 61 1013.3
20260504032353 46 228 0.0 0.0 0.00 0.00 0.00 61 1013.2
20260504031334 46 228 0.0 0.0 0.00 0.00 0.00 60 1013.2
20260504030533 46 230 0.0 0.0 0.00 0.00 0.00 60 1012.9
20260504025300 46 222 0.0 0.0 0.00 0.00 0.00 59 1013.2
20260504024243 46 222 0.0 0.0 0.00 0.00 0.00 58 1013.2
20260504023226 46 220 0.0 0.0 0.00 0.00 0.00 58 1013.0
20260504022207 46 220 0.0 0.0 0.00 0.00 0.00 57 1013.2
20260504021151 47 220 0.0 0.0 0.00 0.00 0.00 56 1013.1
20260504020135 47 242 0.0 0.9 0.00 0.00 0.00 56 1013.1
20260504015117 48 236 0.0 0.0 0.00 0.00 0.00 55 1012.9
20260504014317 48 236 0.0 0.0 0.00 0.00 0.00 54 1013.0
20260504013044 48 238 0.0 0.0 0.00 0.00 0.00 52 1012.7
20260504012236 49 238 0.0 0.0 0.00 0.00 0.00 50 1012.7
20260504011006 50 240 0.0 0.0 0.00 0.00 0.00 49 1012.6
20260504005949 51 243 0.0 4.3 0.00 0.00 0.00 48 1012.5
20260504004933 51 240 0.0 0.0 0.00 0.00 0.00 46 1012.3
20260504003912 52 242 0.0 0.0 0.00 0.00 0.00 45 1012.2
20260504002855 53 242 0.0 0.0 0.00 0.00 0.00 43 1012.0
20260504001835 53 240 0.0 0.0 0.00 0.00 0.00 42 1012.0
20260504000819 54 240 0.0 0.0 0.00 0.00 0.00 39 1011.8
20260503235801 55 252 0.0 0.0 0.00 0.00 0.00 37 1011.7
20260503234744 56 254 0.9 0.0 0.00 0.00 0.00 36 1011.6
20260503233701 57 254 0.9 0.0 0.00 0.00 0.00 35 1011.5
20260503232644 57 254 0.9 0.0 0.00 0.00 0.00 35 1011.5
20260503231627 58 254 0.9 0.0 0.00 0.00 0.00 34 1011.2
20260503230610 58 256 0.9 0.0 0.00 0.00 0.00 33 1011.3
20260503225553 58 290 0.9 8.7 0.00 0.00 0.00 33 1011.3
20260503224537 59 288 1.7 8.7 0.00 0.00 0.00 32 1011.1
20260503223520 59 286 1.7 8.7 0.00 0.00 0.00 32 1011.0
20260503222503 59 292 1.7 8.7 0.00 0.00 0.00 31 1011.2
20260503221420 59 290 1.7 9.6 0.00 0.00 0.00 31 1011.3
20260503220403 59 290 1.7 9.6 0.00 0.00 0.00 31 1011.3
20260503215346 60 294 1.7 8.7 0.00 0.00 0.00 31 1011.1
20260503214328 60 300 1.7 8.7 0.00 0.00 0.00 31 1011.0